GW0824 Weather Reports


Display with metric or nautical units.
time (UTC)temp
F
wind
direction
speed
MPH
gust
MPH
rain 1hr
in
rain 24hr
in
rain mn
in
humidity
%
barometer
mb
20260507103017 38 360 1.0 3.0 0.00 0.05 0.00 84 894.4
20260507101513 38 360 0.0 2.0 0.00 0.05 0.00 85 894.7
20260507100018 38 360 1.0 3.0 0.00 0.07 0.00 86 894.9
20260507094510 38 360 1.0 3.0 0.00 0.07 0.00 86 895.0
20260507093009 38 360 1.0 3.0 0.00 0.07 0.00 86 895.3
20260507091508 38 360 0.0 2.0 0.00 0.07 0.00 86 895.2
20260507090008 38 360 0.0 3.0 0.00 0.08 0.00 86 895.5
20260507084508 38 360 1.0 2.0 0.00 0.08 0.00 86 895.6
20260507083003 37 360 1.0 3.0 0.00 0.08 0.00 86 895.7
20260507081505 38 360 1.0 3.0 0.00 0.08 0.00 86 895.9
20260507080103 38 360 1.0 3.0 0.00 0.08 0.00 86 896.2
20260507074610 37 360 1.0 3.0 0.00 0.09 0.00 87 896.5
20260507073055 37 360 1.0 3.0 0.00 0.09 0.00 87 896.7
20260507071554 37 360 1.0 3.0 0.00 0.09 0.00 87 896.7
20260507070106 37 360 1.0 3.0 0.00 0.10 0.00 88 897.0
20260507064547 36 360 1.0 2.0 0.00 0.10 0.00 88 897.0
20260507063055 37 360 0.0 2.0 0.00 0.10 0.00 88 897.3
20260507061547 37 360 1.0 3.0 0.00 0.10 0.00 88 897.6
20260507060045 37 360 0.0 1.0 0.00 0.11 0.00 88 897.5
20260507054543 37 360 0.0 0.0 0.00 0.11 0.00 88 897.6
20260507053039 37 360 0.0 2.0 0.00 0.11 0.00 88 897.9
20260507051535 36 360 1.0 2.0 0.00 0.11 0.00 88 898.0
20260507050036 36 360 1.0 2.0 0.00 0.14 0.11 88 898.0
20260507044531 37 360 1.0 2.0 0.00 0.14 0.11 87 898.1
20260507043031 37 360 1.0 2.0 0.00 0.14 0.11 87 898.4
20260507041531 37 360 1.0 2.0 0.00 0.14 0.11 87 898.3
20260507040031 38 360 1.0 2.0 0.00 0.16 0.11 86 898.4
20260507034535 39 360 0.0 0.0 0.00 0.16 0.11 86 898.3
20260507033028 39 360 1.0 2.0 0.00 0.16 0.11 86 898.4
20260507031526 39 360 0.0 0.0 0.00 0.16 0.11 86 898.4
20260507030026 40 360 0.0 2.0 0.00 0.20 0.11 86 898.4
20260507024526 41 360 0.0 2.0 0.00 0.20 0.11 86 898.4
20260507023025 41 360 0.0 2.0 0.00 0.20 0.11 85 898.4
20260507021524 42 360 1.0 2.0 0.00 0.20 0.11 84 898.3
20260507020031 43 360 0.0 2.0 0.00 0.30 0.11 83 898.3
20260507014522 44 360 0.0 2.0 0.00 0.30 0.11 81 898.3
20260507013038 45 360 0.0 2.0 0.00 0.30 0.11 79 898.3
20260507011520 46 360 0.0 2.0 0.00 0.30 0.11 79 898.4
20260507010020 47 360 1.0 2.0 0.00 0.32 0.11 77 898.3
20260507004520 47 360 0.0 2.0 0.00 0.32 0.11 77 898.3
20260507003017 46 360 0.0 2.0 0.00 0.32 0.11 78 898.4
20260507001519 45 360 0.0 2.0 0.00 0.32 0.11 80 898.5
20260507000018 45 360 0.0 2.0 0.00 0.32 0.11 79 898.6
20260506234525 45 360 0.0 2.0 0.00 0.32 0.11 77 898.5
20260506233016 46 360 0.0 2.0 0.00 0.32 0.11 77 898.6
20260506231515 47 178 0.0 0.0 0.00 0.32 0.11 72 898.5
20260506230014 47 182 0.0 0.0 0.00 0.32 0.11 72 898.4
20260506224514 47 198 0.0 2.0 0.00 0.32 0.11 72 898.4
20260506223013 46 196 0.0 1.0 0.01 0.32 0.11 74 898.5
20260506221512 45 156 0.0 1.0 0.01 0.32 0.11 77 898.5
20260506220021 45 184 0.0 1.0 0.01 0.32 0.11 77 898.6
20260506214512 44 30 0.0 0.0 0.01 0.32 0.11 77 898.8
20260506213011 44 69 0.0 0.0 0.00 0.31 0.10 75 899.0
20260506211518 46 14 0.0 1.0 0.00 0.31 0.10 73 899.1
20260506210017 48 98 0.0 3.0 0.00 0.31 0.10 67 899.2
20260506204509 49 319 0.0 0.0 0.00 0.31 0.10 66 899.1
20260506203009 49 223 0.0 1.0 0.00 0.31 0.10 65 899.2
20260506201508 49 12 0.0 1.0 0.00 0.31 0.10 63 899.2
20260506200010 49 360 0.0 1.0 0.00 0.31 0.10 66 899.3
20260506194504 48 360 0.0 2.0 0.00 0.31 0.10 65 899.4
20260506193002 48 360 0.0 0.0 0.00 0.31 0.10 65 899.4
20260506191501 48 360 0.0 0.0 0.00 0.31 0.10 67 899.5
20260506190100 48 360 0.0 0.0 0.00 0.31 0.10 69 899.6
20260506184607 46 360 0.0 0.0 0.00 0.31 0.10 74 899.8
20260506183054 46 360 0.0 0.0 0.00 0.31 0.10 72 899.9
20260506181552 46 360 0.0 0.0 0.00 0.31 0.10 74 900.0
20260506180048 45 360 0.0 2.0 0.00 0.31 0.10 78 900.1
20260506174548 44 360 0.0 0.0 0.00 0.31 0.10 77 900.1
20260506173046 43 360 0.0 0.0 0.00 0.31 0.10 81 900.3
20260506171547 42 360 0.0 0.0 0.00 0.31 0.10 83 900.2
20260506170037 41 360 0.0 1.0 0.00 0.32 0.10 84 900.3
20260506164547 40 21 0.0 1.0 0.00 0.32 0.10 85 900.3
20260506163033 40 22 0.0 0.0 0.00 0.32 0.10 86 900.2
20260506161533 40 22 0.0 1.0 0.00 0.32 0.10 87 900.1
20260506160029 39 24 0.0 2.0 0.00 0.32 0.10 87 900.0
20260506154526 39 18 0.0 1.0 0.00 0.32 0.10 88 899.8
20260506153023 39 13 0.0 0.0 0.00 0.32 0.10 89 899.6
20260506151522 39 16 0.0 1.0 0.00 0.32 0.10 90 899.3
20260506150020 38 238 0.0 1.0 0.00 0.32 0.10 90 899.5
20260506144618 38 237 0.0 0.0 0.00 0.32 0.10 91 899.5
20260506143021 37 223 0.0 0.0 0.00 0.32 0.10 91 899.4
20260506141517 37 226 0.0 1.0 0.00 0.32 0.10 92 899.3
20260506140016 37 211 0.0 2.0 0.00 0.32 0.10 92 899.3
20260506134516 36 194 0.0 2.0 0.01 0.32 0.10 92 899.3
20260506133015 36 200 0.0 2.0 0.01 0.32 0.10 92 899.2
20260506131517 35 360 0.0 0.0 0.01 0.32 0.10 92 899.0
20260506130014 35 175 0.0 0.0 0.01 0.32 0.10 92 898.8
20260506124510 35 178 0.0 0.0 0.01 0.31 0.09 91 898.7
20260506123007 35 178 0.0 0.0 0.01 0.31 0.09 92 898.4
20260506121506 35 178 0.0 0.0 0.01 0.31 0.09 91 898.3
20260506120005 35 360 0.0 0.0 0.02 0.31 0.09 91 898.3
20260506114503 35 360 0.0 0.0 0.01 0.30 0.08 91 898.0
20260506113002 36 178 0.0 0.0 0.02 0.30 0.08 91 897.8
20260506111600 36 178 0.0 0.0 0.02 0.30 0.08 92 897.8
20260506110101 36 169 0.0 2.0 0.01 0.28 0.07 92 897.7
20260506104557 36 198 0.0 0.0 0.02 0.28 0.07 91 897.6